Creston, IA

12:25 PM CST on November 17, 2017 (GMT -0600)
Creston Municipal

Weather History for KCSQ - December, 2012

Change the Weather History Date:

Sunday, December 9, 2012

  Actual Average Record
Temperature  
Mean Temperature 26 °F -  
Max Temperature 37 °F 35 °F 57 °F (1993)
Min Temperature 15 °F 20 °F -7 °F (1958)
Degree Days  
Heating Degree Days 39    
Moisture  
Dew Point 23 °F    
Average Humidity 80    
Maximum Humidity 93    
Minimum Humidity 63    
Precipitation  
Precipitation 0.07 in - - ()
Sea Level Pressure  
Sea Level Pressure 29.90 in    
Wind  
Wind Speed 11 mph (WNW)    
Max Wind Speed 31 mph    
Max Gust Speed 39 mph    
Visibility 7 miles    
Events Rain    
Averages and records for this station are not official NWS values.
T = Trace of Precipitation, MM = Missing Value Source: NWS Daily Summary

Daily Weather History Graph

Daily Weather History Graph

Search for Another Location

Airport or City:

Trip Planner

Search our weather history database for the weather conditions in past years. The results will help you decide how hot, cold, wet, or windy it might be!

Date:

Astronomy

Dec. 09, 2012 Rise Set
Actual Time 7:31 AM CST 4:49 PM CST
Civil Twilight 7:00 AM CST 5:19 PM CST
Nautical Twilight 6:25 AM CST 5:54 PM CST
Astronomical Twilight 5:52 AM CST 6:27 PM CST
Moon 3:03 AM CST (12/9) 1:57 PM CST (12/9)
Length of Visible Light 10h 19m
Length of Day
9h 17m
Waning Crescent, 18% of the Moon is Illuminated
Dec 9
Waning Crescent
Dec 13
New
Dec 19
First Quarter
Dec 28
Full
Jan 4
Last Quarter

Hourly Weather History & Observations

Time (CST) Temp. Windchill Dew Point Humidity Pressure Visibility Wind Dir Wind Speed Gust Speed Precip Events Conditions
12:15 AM 35.6 °F 27.1 °F 30.2 °F 81% 29.90 in 5.0 mi ESE 12.7 mph - N/A   Overcast
12:35 AM 35.6 °F 28.0 °F 30.2 °F 81% 29.89 in 4.0 mi ESE 10.4 mph - N/A   Overcast
12:55 AM 35.6 °F 29.9 °F 30.2 °F 81% 29.88 in 3.0 mi East 6.9 mph - N/A   Light Drizzle
1:15 AM 33.8 °F 29.6 °F 30.2 °F 87% 29.89 in 2.5 mi East 4.6 mph - N/A Rain Light Rain
1:35 AM 33.8 °F 29.6 °F 30.2 °F 87% 29.88 in 2.0 mi East 4.6 mph - 0.01 in Rain Light Rain
1:55 AM 33.8 °F 29.6 °F 30.2 °F 87% 29.88 in 1.8 mi ESE 4.6 mph - 0.01 in   Light Drizzle
2:15 AM 35.6 °F 30.7 °F 32.0 °F 87% 29.88 in 2.0 mi SE 5.8 mph - N/A   Light Drizzle
2:35 AM 35.6 °F 31.7 °F 33.8 °F 93% 29.88 in 1.8 mi SE 4.6 mph - N/A   Drizzle
2:55 AM 35.6 °F - 33.8 °F 93% 29.88 in 2.0 mi Calm Calm - 0.01 in   Drizzle
3:15 AM 35.6 °F 32.8 °F 33.8 °F 93% 29.88 in 1.8 mi SE 3.5 mph - N/A   Drizzle
3:35 AM 35.6 °F 31.7 °F 33.8 °F 93% 29.87 in 1.8 mi SE 4.6 mph - 0.01 in   Drizzle
3:55 AM 35.6 °F - 33.8 °F 93% 29.86 in 1.8 mi Calm Calm - 0.01 in   Drizzle
4:15 AM 35.6 °F - 33.8 °F 93% 29.86 in 1.8 mi Calm Calm - N/A   Light Drizzle
4:35 AM 35.6 °F - 33.8 °F 93% 29.85 in 1.5 mi Calm Calm - N/A   Light Drizzle
4:55 AM 35.6 °F - 33.8 °F 93% 29.85 in 1.8 mi Calm Calm - 0.01 in   Light Drizzle
5:15 AM 35.6 °F - 33.8 °F 93% 29.84 in 2.0 mi Calm Calm - N/A Rain Rain
5:35 AM 35.6 °F 32.8 °F 33.8 °F 93% 29.84 in 2.0 mi ENE 3.5 mph - N/A   Drizzle
5:55 AM 35.6 °F - 33.8 °F 93% 29.85 in 2.5 mi Calm Calm - 0.01 in   Drizzle
6:15 AM 35.6 °F - 33.8 °F 93% 29.86 in 2.5 mi Calm Calm - N/A   Drizzle
6:35 AM 35.6 °F - 33.8 °F 93% 29.87 in 4.0 mi Calm Calm - N/A   Light Drizzle
6:55 AM 35.6 °F - 33.8 °F 93% 29.87 in 3.0 mi Calm Calm - 0.01 in Rain Light Rain
7:15 AM 35.6 °F - 33.8 °F 93% 29.87 in 3.0 mi Calm Calm - N/A Rain Rain
7:35 AM 35.6 °F - 33.8 °F 93% 29.86 in 3.0 mi Calm Calm - N/A   Drizzle
7:55 AM 35.6 °F - 33.8 °F 93% 29.86 in 4.0 mi Calm Calm - 0.01 in Rain Light Rain
8:15 AM 35.6 °F - 32.0 °F 87% 29.87 in 3.0 mi Calm Calm - N/A Rain Light Rain
8:35 AM 35.6 °F - 33.8 °F 93% 29.87 in 3.0 mi Calm Calm - N/A   Light Drizzle
8:55 AM 35.6 °F - 33.8 °F 93% 29.86 in 4.0 mi Calm Calm - N/A   Overcast
9:15 AM 35.6 °F - 33.8 °F 93% 29.86 in 4.0 mi Calm Calm - N/A   Overcast
9:35 AM 37.4 °F - 33.8 °F 87% 29.86 in 5.0 mi Calm Calm - N/A   Overcast
9:55 AM 37.4 °F - 33.8 °F 87% 29.87 in 5.0 mi Calm Calm - N/A   Overcast
10:35 AM 37.4 °F 30.8 °F 33.8 °F 87% 29.88 in 4.0 mi West 9.2 mph - N/A   Overcast
10:55 AM 37.4 °F 29.8 °F 33.8 °F 87% 29.87 in 2.0 mi West 11.5 mph - N/A   Overcast
11:15 AM 35.6 °F 24.8 °F 30.2 °F 81% 29.87 in 10.0 mi WNW 19.6 mph 27.6 mph N/A   Overcast
11:35 AM 33.8 °F 22.8 °F 28.4 °F 81% 29.87 in 10.0 mi WNW 18.4 mph 26.5 mph N/A   Overcast
11:55 AM 33.8 °F 22.8 °F 28.4 °F 81% 29.86 in 10.0 mi West 18.4 mph 21.9 mph N/A   Overcast
12:15 PM 33.8 °F 22.2 °F 28.4 °F 81% 29.86 in 10.0 mi West 20.7 mph 26.5 mph N/A   Mostly Cloudy
12:35 PM 33.8 °F 23.9 °F 28.4 °F 81% 29.85 in 10.0 mi West 15.0 mph - N/A   Overcast
12:55 PM 32.0 °F 20.1 °F 26.6 °F 80% 29.86 in 10.0 mi West 19.6 mph - N/A   Overcast
1:15 PM 30.2 °F 16.8 °F 24.8 °F 80% 29.86 in 10.0 mi WNW 23.0 mph 27.6 mph N/A   Overcast
1:35 PM 30.2 °F 17.1 °F 24.8 °F 80% 29.87 in 10.0 mi West 21.9 mph 27.6 mph N/A   Overcast
1:55 PM 30.2 °F 18.1 °F 23.0 °F 75% 29.88 in 10.0 mi West 18.4 mph 27.6 mph N/A   Overcast
2:15 PM 28.4 °F 14.1 °F 21.2 °F 74% 29.89 in 10.0 mi WNW 24.2 mph 28.8 mph N/A   Overcast
2:35 PM 28.4 °F 14.7 °F 19.4 °F 69% 29.89 in 10.0 mi West 21.9 mph 28.8 mph N/A   Mostly Cloudy
2:55 PM 26.6 °F 13.1 °F 19.4 °F 74% 29.90 in 10.0 mi West 19.6 mph 25.3 mph N/A   Overcast
3:15 PM 26.6 °F 11.1 °F 19.4 °F 74% 29.89 in 10.0 mi WNW 26.5 mph 31.1 mph N/A   Mostly Cloudy
3:35 PM 26.6 °F 11.4 °F 17.6 °F 69% 29.90 in 10.0 mi West 25.3 mph 33.4 mph N/A   Scattered Clouds
3:55 PM 24.8 °F 8.1 °F 15.8 °F 69% 29.91 in 10.0 mi WNW 28.8 mph 36.8 mph N/A   Scattered Clouds
4:15 PM 24.8 °F 8.7 °F 15.8 °F 69% 29.92 in 10.0 mi WNW 26.5 mph 32.2 mph N/A   Mostly Cloudy
4:35 PM 24.8 °F 8.1 °F 14.0 °F 64% 29.92 in 10.0 mi West 28.8 mph 34.5 mph N/A   Overcast
4:55 PM 23.0 °F 6.3 °F 12.2 °F 63% 29.93 in 10.0 mi West 26.5 mph 33.4 mph N/A   Overcast
5:15 PM 21.2 °F 4.2 °F 12.2 °F 68% 29.93 in 10.0 mi West 25.3 mph 31.1 mph N/A   Overcast
5:35 PM 21.2 °F 3.3 °F 12.2 °F 68% 29.93 in 10.0 mi WNW 28.8 mph 36.8 mph N/A   Overcast
5:55 PM 21.2 °F 4.9 °F 10.4 °F 63% 29.94 in 10.0 mi WNW 23.0 mph 34.5 mph N/A   Overcast
6:15 PM 19.4 °F 2.1 °F 10.4 °F 68% 29.95 in 10.0 mi WNW 24.2 mph 34.5 mph N/A   Overcast
6:35 PM 19.4 °F 1.1 °F 10.4 °F 68% 29.95 in 10.0 mi WNW 27.6 mph 33.4 mph N/A   Overcast
6:55 PM 19.4 °F 0.2 °F 10.4 °F 68% 29.95 in 10.0 mi WNW 31.1 mph 38.0 mph N/A   Overcast
7:15 PM 19.4 °F 1.1 °F 10.4 °F 68% 29.96 in 10.0 mi WNW 27.6 mph 36.8 mph N/A   Overcast
7:35 PM 19.4 °F 1.8 °F 10.4 °F 68% 29.96 in 10.0 mi WNW 25.3 mph 34.5 mph N/A   Overcast
7:55 PM 17.6 °F -1.9 °F 10.4 °F 73% 29.95 in 10.0 mi WNW 29.9 mph 38.0 mph N/A   Overcast
8:15 PM 17.6 °F -1.6 °F 10.4 °F 73% 29.96 in 10.0 mi WNW 28.8 mph 36.8 mph N/A   Overcast
8:35 PM 17.6 °F -1.9 °F 10.4 °F 73% 29.96 in 10.0 mi WNW 29.9 mph 39.1 mph N/A   Overcast
8:55 PM 17.6 °F -0.6 °F 10.4 °F 73% 29.97 in 10.0 mi WNW 25.3 mph 39.1 mph N/A   Overcast
9:15 PM 17.6 °F -2.2 °F 10.4 °F 73% 29.97 in 10.0 mi WNW 31.1 mph 39.1 mph N/A   Overcast
9:35 PM 17.6 °F -1.0 °F 10.4 °F 73% 29.97 in 10.0 mi WNW 26.5 mph 33.4 mph N/A   Overcast
9:55 PM 17.6 °F 0.9 °F 10.4 °F 73% 29.97 in 10.0 mi WNW 20.7 mph 28.8 mph N/A   Overcast
10:15 PM 17.6 °F 0.5 °F 8.6 °F 68% 29.98 in 10.0 mi WNW 21.9 mph 34.5 mph N/A   Overcast
10:35 PM 15.8 °F -2.3 °F 8.6 °F 73% 29.99 in 10.0 mi WNW 23.0 mph 33.4 mph N/A   Overcast
10:55 PM 15.8 °F -4.1 °F 8.6 °F 73% 29.99 in 10.0 mi WNW 28.8 mph 34.5 mph N/A   Overcast
11:15 PM 15.8 °F -1.9 °F 6.8 °F 68% 29.99 in 10.0 mi WNW 21.9 mph 34.5 mph N/A   Overcast
11:35 PM 15.8 °F -1.9 °F 8.6 °F 73% 29.99 in 10.0 mi WNW 21.9 mph 31.1 mph N/A   Overcast
11:55 PM 15.8 °F -3.1 °F 6.8 °F 68% 29.99 in 10.0 mi WNW 25.3 mph 31.1 mph N/A   Overcast